Regional Weather Roundup
Issued by NWS Memphis, TN

Home | Current Version | Previous Version | Text Only | Print | Product List | Glossary On
Versions: 1 2 3 4 5 6 7 8 9 10 11 12 13 14 15 16 17 18 19 20 21 22 23 24 25 26 27 28 29 30 31 32 33 34 35 36 37 38 39 40 41 42 43 44 45 46 47 48 49 50
000
ASUS44 KMEG 282310
RWRMEG
MEMPHIS CWA HOURLY WEATHER ROUNDUP
NATIONAL WEATHER SERVICE MEMPHIS TN
600 PM CDT MON JUL 28 2014

...WEST TENNESSEE...

CITY           SKY/WX    TMP DP  RH WIND       PRES   REMARKS
MEMPHIS INTL   MOSUNNY   83  61  47 N14       30.03F
NWS MEMPHIS      N/A     82 N/A N/A MISG        N/A
JACKSON        MOSUNNY   82  62  50 N13       30.02F
LEXINGTON      PTSUNNY   79  63  57 N13       30.01S
SAVANNAH       SUNNY     81  62  52 N10       30.01F
DYERSBURG      MOSUNNY   81  59  47 N9        30.04S
UNION CITY     SUNNY     79  63  57 NW12      30.02S
PARIS          MOSUNNY   78  62  57 VRB6      30.03S


...EASTERN ARKANSAS...

CITY           SKY/WX    TMP DP  RH WIND       PRES   REMARKS
JONESBORO      SUNNY     84  63  49 N5        30.03F
WEST MEMPHIS   SUNNY     84  65  52 N13       30.02F
BATESVILLE     SUNNY     84  61  45 N5        30.05F
NEWPORT        MOSUNNY   85  64  49 N7        30.05F
WALNUT RIDGE   MOSUNNY   82  61  47 N5        30.03F
BLYTHEVILLE    PTSUNNY   83  65  54 N6        30.03S
SEARCY         MOSUNNY   85  64  49 N8        30.05F
STUTTGART      SUNNY     84  63  48 N10       30.05F
PINE BLUFF     SUNNY     86  62  44 N10       30.04F
MONTICELLO     SUNNY     86  64  47 N3        30.02F


...NORTH MISSISSIPPI...

CITY           SKY/WX    TMP DP  RH WIND       PRES   REMARKS
TUPELO         SUNNY     82  62  50 N8        30.00S
OLIVE BRANCH   MOSUNNY   79  63  57 N9        30.03F
CLARKSDALE     SUNNY     82  66  57 NW8       30.04S
CORINTH        MOSUNNY   82  63  51 N7        30.01S
GRENADA        PTSUNNY   84  63  48 NW7       30.01F
GREENWOOD      SUNNY     85  64  49 NW8       30.00F
COLUMBUS       SUNNY     84  63  48 N13       29.99R
STARKVILLE     FAIR      86  63  45 N6        29.99S
GOLDEN TRIANGL MOSUNNY   88  66  48 N12       29.99S HX  90


...SOUTHEAST MISSOURI...

CITY           SKY/WX    TMP DP  RH WIND       PRES   REMARKS
WEST PLAINS    MOSUNNY   83  56  39 N8G17     30.10F
POPLAR BLUFF   MOSUNNY   84  59  42 NW8       30.02S
CAPE GIRARDEAU MOSUNNY   79  61  53 N10       30.04S


...NORTHWEST ALABAMA...

CITY           SKY/WX    TMP DP  RH WIND       PRES   REMARKS
MUSCLE SHOALS  MOSUNNY   84  60  44 NW8       30.00F


...MIDDLE TENNESSEE...

CITY           SKY/WX    TMP DP  RH WIND       PRES   REMARKS
NASHVILLE      MOSUNNY   82  59  45 N15       29.98F
CLARKSVILLE    PTSUNNY   81  57  43 NW14      30.00F
DICKSON        SUNNY     77  59  53 N7        30.01F
COLUMBIA       SUNNY     81  63  54 NW8       29.98F
LEWISBURG      MOSUNNY   79  61  53 N7        29.99F


...WESTERN KENTUCKY...

CITY           SKY/WX    TMP DP  RH WIND       PRES   REMARKS
PADUCAH        PTSUNNY   80  61  52 N9        30.02S
FORT CAMPBELL  MOSUNNY   81  58  46 NW14      30.00F


...CENTRAL ARKANSAS...

CITY           SKY/WX    TMP DP  RH WIND       PRES   REMARKS
LITTLE ROCK    PTSUNNY   87  60  40 N12       30.04F


SKY/WX REPORTED AS FAIR MEANS FEW OR NO CLOUDS BELOW
12 THOUSAND FEET.




USA.gov is the U.S. government's official web portal to all federal, state and local government web resources and services.